Satellite: RAX-2 Catalog number: 37853 Epoch time: 12207.78402438 Element set: 0240 Inclination: 101.7120 deg RA of node: 265.5489 deg Eccentricity: 0.0246398 Arg of perigee: 240.8518 deg Mean anomaly: 116.7838 deg Mean motion: 14.80230772 rev/day Decay rate: 8.96e-06 rev/day^2 Epoch rev: 04011 Checksum: 300
Satellite: AUBIESAT Catalog number: 37854 Epoch time: 12207.79613690 Element set: 0246 Inclination: 101.7115 deg RA of node: 265.8647 deg Eccentricity: 0.0247144 Arg of perigee: 239.9262 deg Mean anomaly: 117.7235 deg Mean motion: 14.80628084 rev/day Decay rate: 8.58e-06 rev/day^2 Epoch rev: 04010 Checksum: 303
Satellite: HRBE Catalog number: 37855 Epoch time: 12207.74611131 Element set: 0240 Inclination: 101.7142 deg RA of node: 265.7375 deg Eccentricity: 0.0247575 Arg of perigee: 240.4105 deg Mean anomaly: 117.2285 deg Mean motion: 14.80477055 rev/day Decay rate: 1.386e-05 rev/day^2 Epoch rev: 04009 Checksum: 273
Satellite: RS-39 Catalog number: 38051 Epoch time: 12208.85631832 Element set: 550 Inclination: 051.6346 deg RA of node: 330.7260 deg Eccentricity: 0.0014171 Arg of perigee: 175.9541 deg Mean anomaly: 326.3103 deg Mean motion: 15.24831138 rev/day Decay rate: 3.914e-05 rev/day^2 Epoch rev: 2802 Checksum: 272
Satellite: E-STAR Catalog number: 38079 Epoch time: 12208.44189787 Element set: 380 Inclination: 069.4872 deg RA of node: 225.8130 deg Eccentricity: 0.0734855 Arg of perigee: 198.4386 deg Mean anomaly: 158.8770 deg Mean motion: 14.17157047 rev/day Decay rate: 2.2417e-04 rev/day^2 Epoch rev: 2314 Checksum: 334
Satellite: GOLIAT Catalog number: 38085 Epoch time: 12208.46103518 Element set: 353 Inclination: 069.4893 deg RA of node: 226.1713 deg Eccentricity: 0.0740089 Arg of perigee: 198.7035 deg Mean anomaly: 158.5540 deg Mean motion: 14.16145910 rev/day Decay rate: 2.1038e-04 rev/day^2 Epoch rev: 2313 Checksum: 288
Satellite: HORYU-2 Catalog number: 38340 Epoch time: 12208.64587174 Element set: 64 Inclination: 098.1753 deg RA of node: 148.4643 deg Eccentricity: 0.0011866 Arg of perigee: 201.2039 deg Mean anomaly: 158.9175 deg Mean motion: 14.70049443 rev/day Decay rate: 4.5e-07 rev/day^2 Epoch rev: 1036 Checksum: 289
/EX
participants (1)
-
Ray Hoad